Thunderstorms From: 26-05-2018 21:24 Until: 27-05-2018 15:00 warning for: Thunderstorms Level: Yellow info button

Although rather usual in this region, locally or potentially dangerous phenomena are expected. (such as local winds, summer thunderstorms, rising streams or high waves) Be aware and pay attention to the latest weather updates, especially if you carry out activities exposed to weather or close to a stream or shoreline. 


Meteo18 Weather Cam more information Meteo18 Weather Cam


warning for Thunderstorms more information blitzortung!


Rain radar more information rain snow radar


Visit our other weather sites:

Template documentation
and downloads

And another site



Weather Underground History page Text

Daily Summary for January 19, 2018 Units:  English    Metric   Both
« Previous Day
Next Day »
Daily Weekly Monthly Yearly Custom
  High: Low: Average:
Temperature: TemperatureC °F 2.8 °F 5.3 °F
Dew Point: DewpointC °F 1.3 °F 3.6 °F
Humidity: Humidity % 80 % 88 %
Wind Speed: WindSpeedKMH mph 0.0 mph 7.4 mph
Wind Gust: WindSpeedGustKMH mph - -
Wind:- - West
Pressure: PressurehPa in 1012.8 in -
Precipitation: 2.3 in    
Historical Graphs
 
 
Tabular Data for January 19, 2018
Time Temperature Dew Point Pressure Wind Wind Speed Wind Gust Humidity Rainfall Rate (Hourly)
TemperatureC °F DewpointC °F PressurehPa in Calm     Humidity % HourlyPrecipMM in
00:03 9.1 °F 6.9 °F 1012.8 in WSW 9.7 mph 20.9 mph 86 % 0.0 in
00:09 9.1 °F 6.9 °F 1012.8 in SW 19.5 mph 22.5 mph 86 % 0.0 in
00:15 9.0 °F 7.0 °F 1012.8 in WSW 6.4 mph 20.9 mph 87 % 0.0 in
00:21 8.9 °F 7.0 °F 1012.8 in West 22.7 mph 24.1 mph 88 % 0.0 in
00:27 8.9 °F 6.9 °F 1012.8 in WSW 13.0 mph 20.9 mph 87 % 0.0 in
00:33 8.9 °F 6.9 °F 1012.8 in WSW 16.3 mph 22.5 mph 87 % 0.0 in
00:39 8.8 °F 6.8 °F 1013.1 in WNW 14.3 mph 20.9 mph 87 % 0.0 in
00:45 8.8 °F 6.8 °F 1013.1 in SSW 4.7 mph 22.5 mph 87 % 0.0 in
00:51 8.7 °F 6.8 °F 1013.1 in West 24.1 mph 32.2 mph 88 % 0.0 in
00:57 8.6 °F 6.7 °F 1013.1 in NW 11.1 mph 16.1 mph 88 % 0.0 in
01:03 7.8 °F 5.4 °F 1013.4 in WNW 9.7 mph 40.2 mph 85 % 0.3 in
01:09 7.2 °F 5.0 °F 1013.4 in WNW 16.3 mph 30.6 mph 86 % 0.3 in
01:15 7.0 °F 5.0 °F 1013.4 in WNW 20.9 mph 22.5 mph 87 % 0.3 in
01:21 7.1 °F 5.1 °F 1013.1 in West 14.3 mph 14.5 mph 87 % 0.5 in
01:27 7.1 °F 5.1 °F 1013.1 in WNW 7.9 mph 14.5 mph 87 % 0.5 in
01:33 7.1 °F 4.9 °F 1013.1 in West 11.1 mph 17.7 mph 86 % 0.5 in
01:39 7.1 °F 4.9 °F 1013.1 in West 9.7 mph 17.7 mph 86 % 0.5 in
01:45 7.1 °F 4.7 °F 1013.4 in WNW 17.7 mph 20.9 mph 85 % 0.5 in
01:51 7.2 °F 4.7 °F 1013.4 in WSW 16.3 mph 22.5 mph 84 % 0.5 in
01:57 7.2 °F 4.7 °F 1013.4 in WNW 7.9 mph 22.5 mph 84 % 0.5 in
02:03 7.2 °F 4.8 °F 1013.4 in West 4.7 mph 14.5 mph 85 % 0.3 in
02:09 7.1 °F 4.7 °F 1013.4 in West 14.3 mph 16.1 mph 85 % 0.3 in
02:15 7.1 °F 4.7 °F 1013.8 in WNW 7.9 mph 17.7 mph 85 % 0.3 in
02:21 7.1 °F 4.9 °F 1013.8 in WNW 6.4 mph 12.9 mph 86 % 0.0 in
02:27 7.1 °F 4.7 °F 1013.8 in West 9.7 mph 14.5 mph 85 % 0.0 in
02:33 7.1 °F 4.7 °F 1013.8 in WNW 6.4 mph 11.3 mph 85 % 0.0 in
02:39 7.1 °F 4.9 °F 1013.8 in West 3.2 mph 14.5 mph 86 % 0.0 in
02:45 7.1 °F 4.9 °F 1014.1 in WNW 9.7 mph 12.9 mph 86 % 0.0 in
02:51 7.0 °F 5.0 °F 1014.1 in West 6.4 mph 12.9 mph 87 % 0.0 in
02:57 6.9 °F 4.9 °F 1014.1 in NW 4.7 mph 12.9 mph 87 % 0.0 in
03:03 6.9 °F 4.9 °F 1014.1 in West 3.2 mph 8.0 mph 87 % 0.0 in
03:09 6.9 °F 4.9 °F 1014.4 in WNW 11.1 mph 11.3 mph 87 % 0.0 in
03:15 6.8 °F 4.8 °F 1014.4 in West 4.7 mph 8.0 mph 87 % 0.0 in
03:21 6.8 °F 4.6 °F 1014.4 in WNW 9.7 mph 12.9 mph 86 % 0.0 in
03:27 6.9 °F 4.7 °F 1014.4 in West 6.4 mph 12.9 mph 86 % 0.0 in
03:33 6.8 °F 4.6 °F 1014.4 in West 4.7 mph 12.9 mph 86 % 0.0 in
03:39 6.8 °F 4.6 °F 1014.4 in WSW 4.7 mph 6.4 mph 86 % 0.0 in
03:45 6.7 °F 4.7 °F 1014.8 in West 16.3 mph 16.3 mph 87 % 0.0 in
03:51 6.1 °F 3.9 °F 1014.4 in WNW 9.7 mph 19.3 mph 86 % 0.3 in
03:57 5.9 °F 4.1 °F 1014.4 in West 6.4 mph 14.5 mph 88 % 0.5 in
04:03 5.9 °F 4.2 °F 1014.4 in WSW 3.2 mph 6.4 mph 89 % 0.5 in
04:09 5.9 °F 4.4 °F 1014.4 in WSW 7.9 mph 8.0 mph 90 % 0.5 in
04:15 6.2 °F 4.7 °F 1014.4 in West 13.0 mph 14.5 mph 90 % 0.5 in
04:21 6.3 °F 4.6 °F 1014.4 in West 13.0 mph 13.0 mph 89 % 0.5 in
04:27 6.4 °F 4.7 °F 1014.4 in West 3.2 mph 11.3 mph 89 % 0.5 in
04:33 6.3 °F 4.6 °F 1014.4 in WNW 6.4 mph 11.3 mph 89 % 0.5 in
04:39 6.2 °F 4.7 °F 1014.4 in North 3.2 mph 9.7 mph 90 % 0.5 in
04:45 6.2 °F 4.7 °F 1014.4 in West 4.7 mph 9.7 mph 90 % 0.5 in
04:52 6.1 °F 4.4 °F 1014.8 in WNW 4.7 mph 6.4 mph 89 % 0.5 in
04:58 6.0 °F 4.5 °F 1014.8 in West 3.2 mph 8.0 mph 90 % 0.0 in
05:04 6.1 °F 4.4 °F 1014.8 in WNW 4.7 mph 16.1 mph 89 % 0.0 in
05:10 6.1 °F 4.4 °F 1014.8 in West 6.4 mph 11.3 mph 89 % 0.0 in
05:16 6.1 °F 4.3 °F 1014.8 in West 4.7 mph 19.3 mph 88 % 0.0 in
05:22 6.0 °F 4.3 °F 1014.8 in West 11.1 mph 11.3 mph 89 % 0.0 in
05:28 6.0 °F 4.3 °F 1014.8 in West 7.9 mph 12.9 mph 89 % 0.0 in
05:34 5.9 °F 4.2 °F 1014.8 in West 6.4 mph 11.3 mph 89 % 0.0 in
05:40 5.8 °F 4.1 °F 1014.8 in West 6.4 mph 16.1 mph 89 % 0.0 in
05:46 5.8 °F 4.1 °F 1014.8 in West 11.1 mph 11.3 mph 89 % 0.0 in
05:52 5.7 °F 4.0 °F 1014.8 in WNW 7.9 mph 14.5 mph 89 % 0.0 in
05:58 5.7 °F 3.9 °F 1014.8 in West 6.4 mph 8.0 mph 88 % 0.0 in
06:04 5.7 °F 4.0 °F 1015.1 in WNW 6.4 mph 11.3 mph 89 % 0.0 in
06:10 5.7 °F 4.0 °F 1015.1 in WNW 7.9 mph 11.3 mph 89 % 0.0 in
06:16 5.7 °F 4.0 °F 1015.1 in WSW 13.0 mph 13.0 mph 89 % 0.0 in
06:22 5.7 °F 4.0 °F 1015.1 in West 4.7 mph 8.0 mph 89 % 0.0 in
06:28 5.7 °F 4.0 °F 1015.1 in West 4.7 mph 11.3 mph 89 % 0.0 in
06:34 5.6 °F 4.1 °F 1015.1 in West 4.7 mph 9.7 mph 90 % 0.0 in
06:40 5.6 °F 4.1 °F 1015.1 in WSW 11.1 mph 16.1 mph 90 % 0.0 in
06:46 5.6 °F 4.1 °F 1015.1 in WNW 7.9 mph 16.1 mph 90 % 0.0 in
06:52 5.4 °F 3.9 °F 1015.1 in West 6.4 mph 9.7 mph 90 % 0.0 in
06:58 5.4 °F 3.9 °F 1015.1 in West 13.0 mph 13.0 mph 90 % 0.0 in
07:04 5.3 °F 3.8 °F 1015.1 in West 3.2 mph 9.7 mph 90 % 0.0 in
07:10 5.3 °F 3.8 °F 1015.1 in West 9.7 mph 16.1 mph 90 % 0.0 in
07:16 5.2 °F 3.7 °F 1015.1 in West 14.3 mph 14.5 mph 90 % 0.0 in
07:22 5.1 °F 3.8 °F 1015.1 in WNW 6.4 mph 12.9 mph 91 % 0.0 in
07:28 5.0 °F 3.7 °F 1015.1 in West 6.4 mph 11.3 mph 91 % 0.0 in
07:34 4.9 °F 3.6 °F 1015.5 in West 4.7 mph 8.0 mph 91 % 0.0 in
07:40 4.8 °F 3.5 °F 1015.5 in WSW 7.9 mph 9.7 mph 91 % 0.0 in
07:46 4.6 °F 3.4 °F 1015.5 in West 6.4 mph 8.0 mph 92 % 0.0 in
07:52 4.4 °F 3.2 °F 1015.5 in WSW 3.2 mph 8.0 mph 92 % 0.0 in
07:58 4.3 °F 3.1 °F 1015.5 in West 1.4 mph 6.4 mph 92 % 0.0 in
08:04 4.2 °F 3.0 °F 1015.5 in West 4.7 mph 4.8 mph 92 % 0.0 in
08:10 4.2 °F 3.0 °F 1015.5 in West 4.7 mph 6.4 mph 92 % 0.0 in
08:16 4.1 °F 3.1 °F 1015.5 in WSW 1.4 mph 4.8 mph 93 % 0.0 in
08:22 3.9 °F 2.9 °F 1015.5 in SW 3.2 mph 4.8 mph 93 % 0.0 in
08:28 3.8 °F 2.8 °F 1015.5 in SSW 3.2 mph 8.0 mph 93 % 0.0 in
08:34 3.6 °F 2.7 °F 1015.5 in WSW 1.4 mph 4.8 mph 94 % 0.0 in
08:40 3.6 °F 2.7 °F 1015.5 in WSW 3.2 mph 4.8 mph 94 % 0.0 in
08:46 3.6 °F 2.7 °F 1015.8 in WSW 4.7 mph 6.4 mph 94 % 0.0 in
08:52 3.6 °F 2.7 °F 1015.8 in WSW 3.2 mph 4.8 mph 94 % 0.0 in
08:58 3.7 °F 3.0 °F 1015.8 in WSW 1.4 mph 6.4 mph 95 % 0.0 in
09:04 3.7 °F 2.8 °F 1015.8 in WSW 1.4 mph 4.8 mph 94 % 0.0 in
09:10 3.7 °F 2.8 °F 1016.1 in WSW 1.4 mph 4.8 mph 94 % 0.0 in
09:16 3.7 °F 3.0 °F 1016.1 in WSW 1.4 mph 6.4 mph 95 % 0.0 in
09:22 3.7 °F 3.0 °F 1016.1 in WSW 6.4 mph 6.4 mph 95 % 0.0 in
09:28 3.8 °F 3.1 °F 1016.1 in WSW 6.4 mph 8.0 mph 95 % 0.0 in
09:34 3.8 °F 3.1 °F 1015.8 in SW 4.7 mph 8.0 mph 95 % 0.0 in
09:40 3.9 °F 3.2 °F 1016.1 in SW 7.9 mph 9.7 mph 95 % 0.0 in
09:46 4.0 °F 3.3 °F 1016.1 in SW 7.9 mph 12.9 mph 95 % 0.0 in
09:52 4.1 °F 3.4 °F 1016.1 in SW 7.9 mph 19.3 mph 95 % 0.0 in
09:58 4.2 °F 3.3 °F 1016.1 in SW 4.7 mph 11.3 mph 94 % 0.0 in
10:04 4.2 °F 3.3 °F 1016.1 in SW 9.7 mph 16.1 mph 94 % 0.0 in
10:10 4.2 °F 3.3 °F 1016.1 in SW 3.2 mph 17.7 mph 94 % 0.0 in
10:16 4.2 °F 3.3 °F 1016.1 in SW 16.3 mph 17.7 mph 94 % 0.0 in
10:22 4.3 °F 3.4 °F 1016.1 in WSW 7.9 mph 22.5 mph 94 % 0.0 in
10:28 4.3 °F 3.4 °F 1016.1 in West 14.3 mph 19.3 mph 94 % 0.0 in
10:34 4.4 °F 3.5 °F 1016.1 in WSW 13.0 mph 19.3 mph 94 % 0.0 in
10:40 4.5 °F 3.6 °F 1016.1 in SW 11.1 mph 14.5 mph 94 % 0.0 in
10:46 4.6 °F 3.7 °F 1016.1 in West 7.9 mph 16.1 mph 94 % 0.0 in
10:52 4.7 °F 3.7 °F 1016.1 in WSW 6.4 mph 14.5 mph 93 % 0.0 in
10:58 4.7 °F 3.7 °F 1016.1 in WSW 7.9 mph 19.3 mph 93 % 0.0 in
11:04 4.8 °F 3.8 °F 1016.1 in SW 9.7 mph 24.1 mph 93 % 0.0 in
11:10 4.9 °F 3.9 °F 1016.1 in WSW 9.7 mph 17.7 mph 93 % 0.0 in
11:16 5.1 °F 4.1 °F 1016.1 in WSW 7.9 mph 12.9 mph 93 % 0.0 in
11:22 5.1 °F 3.9 °F 1016.1 in WSW 13.0 mph 19.3 mph 92 % 0.0 in
11:28 5.1 °F 3.8 °F 1016.1 in WSW 9.7 mph 19.3 mph 91 % 0.0 in
11:35 5.2 °F 4.0 °F 1016.5 in West 6.4 mph 9.7 mph 92 % 0.0 in
11:41 5.3 °F 4.0 °F 1016.5 in WSW 7.9 mph 9.7 mph 91 % 0.0 in
11:47 5.3 °F 4.0 °F 1016.5 in SW 11.1 mph 16.1 mph 91 % 0.0 in
11:53 5.4 °F 4.0 °F 1016.1 in SW 3.2 mph 16.1 mph 91 % 0.0 in
11:59 5.4 °F 4.0 °F 1016.1 in WNW 1.4 mph 9.7 mph 91 % 0.0 in
12:05 5.4 °F 3.9 °F 1016.1 in West 1.4 mph 16.1 mph 90 % 0.0 in
12:11 5.4 °F 3.9 °F 1016.1 in WSW 3.2 mph 12.9 mph 90 % 0.0 in
12:17 5.5 °F 4.0 °F 1016.1 in WSW 4.7 mph 11.3 mph 90 % 0.0 in
12:23 5.5 °F 4.0 °F 1016.1 in West 3.2 mph 14.5 mph 90 % 0.0 in
12:29 5.6 °F 4.1 °F 1016.1 in WSW 7.9 mph 9.7 mph 90 % 0.0 in
12:35 5.6 °F 4.1 °F 1016.1 in WSW 6.4 mph 14.5 mph 90 % 0.0 in
12:41 5.6 °F 4.2 °F 1016.1 in WSW 7.9 mph 8.0 mph 91 % 0.0 in
12:47 5.6 °F 4.2 °F 1016.1 in WSW 9.7 mph 12.9 mph 91 % 0.0 in
12:53 5.5 °F 4.1 °F 1016.1 in WNW 9.7 mph 12.9 mph 91 % 0.3 in
12:59 5.5 °F 4.1 °F 1016.1 in WNW 17.7 mph 19.3 mph 91 % 0.5 in
13:05 5.4 °F 3.7 °F 1015.8 in West 9.7 mph 17.7 mph 89 % 0.5 in
13:11 5.4 °F 3.9 °F 1015.8 in West 4.7 mph 9.7 mph 90 % 0.5 in
13:17 5.4 °F 4.2 °F 1015.8 in SW 7.9 mph 14.5 mph 92 % 0.5 in
13:23 5.4 °F 4.0 °F 1015.8 in West 9.7 mph 17.7 mph 91 % 0.8 in
13:29 5.4 °F 4.0 °F 1015.8 in West 11.1 mph 14.5 mph 91 % 0.8 in
13:35 5.4 °F 3.6 °F 1015.5 in West 14.3 mph 20.9 mph 88 % 0.8 in
13:41 5.3 °F 3.5 °F 1015.8 in West 14.3 mph 20.9 mph 88 % 1.0 in
13:47 5.3 °F 3.6 °F 1015.8 in West 11.1 mph 14.5 mph 89 % 1.0 in
13:53 5.2 °F 3.5 °F 1015.5 in WSW 13.0 mph 19.3 mph 89 % 1.0 in
13:59 5.2 °F 3.7 °F 1015.5 in WNW 16.3 mph 17.7 mph 90 % 0.8 in
14:05 5.2 °F 3.7 °F 1015.5 in West 6.4 mph 16.1 mph 90 % 0.5 in
14:11 5.3 °F 3.8 °F 1015.5 in WSW 7.9 mph 19.3 mph 90 % 0.5 in
14:17 5.5 °F 4.0 °F 1015.1 in West 9.7 mph 17.7 mph 90 % 0.5 in
14:23 5.7 °F 4.2 °F 1015.1 in WSW 9.7 mph 14.5 mph 90 % 0.5 in
14:29 5.7 °F 3.9 °F 1015.1 in West 14.3 mph 24.1 mph 88 % 0.5 in
14:35 5.8 °F 4.0 °F 1015.1 in West 13.0 mph 24.1 mph 88 % 0.5 in
14:41 5.8 °F 4.1 °F 1015.1 in WSW 16.3 mph 19.3 mph 89 % 0.3 in
14:47 6.0 °F 4.3 °F 1015.1 in West 4.7 mph 12.9 mph 89 % 0.3 in
14:53 6.0 °F 4.3 °F 1015.1 in West 6.4 mph 14.5 mph 89 % 0.0 in
14:59 6.0 °F 4.2 °F 1015.1 in West 9.7 mph 14.5 mph 88 % 0.0 in
15:05 6.0 °F 4.2 °F 1015.5 in SW 13.0 mph 19.3 mph 88 % 0.0 in
15:11 6.0 °F 4.0 °F 1015.5 in WNW 14.3 mph 19.3 mph 87 % 0.0 in
15:17 6.0 °F 4.0 °F 1015.5 in WNW 11.1 mph 11.3 mph 87 % 0.0 in
15:23 6.1 °F 4.1 °F 1015.5 in West 4.7 mph 11.3 mph 87 % 0.0 in
15:29 6.1 °F 4.1 °F 1015.1 in WNW 13.0 mph 14.5 mph 87 % 0.0 in
15:35 6.3 °F 4.1 °F 1015.1 in West 11.1 mph 14.5 mph 86 % 0.0 in
15:41 6.4 °F 4.1 °F 1015.1 in West 6.4 mph 20.9 mph 85 % 0.0 in
15:47 6.5 °F 4.2 °F 1015.1 in West 6.4 mph 14.5 mph 85 % 0.0 in
15:53 6.6 °F 4.1 °F 1015.5 in WSW 13.0 mph 14.5 mph 84 % 0.0 in
15:59 6.6 °F 3.9 °F 1015.1 in West 4.7 mph 12.9 mph 83 % 0.0 in
16:05 6.7 °F 4.0 °F 1015.5 in West 11.1 mph 11.3 mph 83 % 0.0 in
16:11 6.8 °F 3.9 °F 1015.1 in WNW 13.0 mph 16.1 mph 82 % 0.0 in
16:17 6.9 °F 4.0 °F 1015.1 in West 7.9 mph 11.3 mph 82 % 0.0 in
16:23 6.9 °F 3.9 °F 1015.1 in West 9.7 mph 12.9 mph 81 % 0.0 in
16:29 6.9 °F 3.9 °F 1015.1 in West 7.9 mph 17.7 mph 81 % 0.0 in
16:35 6.8 °F 3.6 °F 1015.5 in WNW 14.3 mph 19.3 mph 80 % 0.0 in
16:41 6.8 °F 3.9 °F 1015.5 in WNW 9.7 mph 12.9 mph 82 % 0.0 in
16:47 6.7 °F 3.8 °F 1015.5 in West 6.4 mph 12.9 mph 82 % 0.0 in
16:53 6.6 °F 3.7 °F 1015.5 in West 4.7 mph 14.5 mph 82 % 0.0 in
16:59 6.4 °F 3.6 °F 1015.5 in WNW 13.0 mph 13.0 mph 82 % 0.0 in
17:05 6.3 °F 3.6 °F 1015.5 in WNW 13.0 mph 14.5 mph 83 % 0.0 in
17:11 6.1 °F 3.4 °F 1015.5 in WSW 6.4 mph 8.0 mph 83 % 0.0 in
17:17 5.9 °F 3.4 °F 1015.5 in WSW 6.4 mph 9.7 mph 84 % 0.0 in
17:23 5.8 °F 3.3 °F 1015.8 in WSW 3.2 mph 9.7 mph 84 % 0.0 in
17:29 5.8 °F 3.3 °F 1015.8 in West 7.9 mph 8.0 mph 84 % 0.0 in
17:35 5.6 °F 3.1 °F 1015.8 in West 3.2 mph 6.4 mph 84 % 0.0 in
17:41 5.5 °F 3.2 °F 1015.8 in WNW 4.7 mph 9.7 mph 85 % 0.0 in
17:47 5.4 °F 3.1 °F 1015.8 in WNW 6.4 mph 8.0 mph 85 % 0.0 in
17:53 5.3 °F 3.0 °F 1016.1 in West 4.7 mph 8.0 mph 85 % 0.0 in
17:59 5.2 °F 3.1 °F 1016.1 in WSW 4.7 mph 8.0 mph 86 % 0.0 in
18:05 5.1 °F 3.0 °F 1016.1 in WSW 4.7 mph 9.7 mph 86 % 0.0 in
18:11 5.1 °F 3.0 °F 1016.1 in West 3.2 mph 6.4 mph 86 % 0.0 in
18:17 4.9 °F 2.9 °F 1016.1 in West 4.7 mph 8.0 mph 87 % 0.0 in
18:23 4.9 °F 2.8 °F 1016.1 in West 1.4 mph 8.0 mph 86 % 0.0 in
18:29 4.9 °F 2.9 °F 1016.5 in WNW 4.7 mph 8.0 mph 87 % 0.0 in
18:35 4.9 °F 2.8 °F 1016.5 in WNW 4.7 mph 6.4 mph 86 % 0.0 in
18:41 4.8 °F 2.7 °F 1016.8 in WNW 4.7 mph 6.4 mph 86 % 0.0 in
18:47 4.7 °F 2.6 °F 1016.8 in WNW 3.2 mph 4.8 mph 86 % 0.0 in
18:53 4.6 °F 2.6 °F 1016.8 in Calm   4.8 mph 87 % 0.0 in
18:59 4.5 °F 2.5 °F 1016.8 in West 3.2 mph 3.2 mph 87 % 0.0 in
19:05 4.4 °F 2.6 °F 1016.8 in West 1.4 mph 4.8 mph 88 % 0.0 in
19:11 4.3 °F 2.5 °F 1016.8 in West 3.2 mph 4.8 mph 88 % 0.0 in
19:17 4.3 °F 2.5 °F 1016.8 in WNW 3.2 mph 4.8 mph 88 % 0.0 in
19:23 4.3 °F 2.5 °F 1016.8 in West 6.4 mph 6.4 mph 88 % 0.0 in
19:29 4.3 °F 2.5 °F 1016.8 in West 1.4 mph 6.4 mph 88 % 0.0 in
19:35 4.3 °F 2.5 °F 1016.8 in West 3.2 mph 4.8 mph 88 % 0.0 in
19:41 4.2 °F 2.4 °F 1016.8 in West 1.4 mph 3.2 mph 88 % 0.0 in
19:47 4.1 °F 2.3 °F 1016.8 in West 3.2 mph 6.4 mph 88 % 0.0 in
19:53 4.0 °F 2.4 °F 1016.8 in West 6.4 mph 9.7 mph 89 % 0.0 in
19:59 4.0 °F 2.2 °F 1017.2 in West 3.2 mph 8.0 mph 88 % 0.0 in
20:06 4.0 °F 2.2 °F 1017.2 in West 6.4 mph 9.7 mph 88 % 0.0 in
20:11 4.0 °F 2.0 °F 1017.2 in West 7.9 mph 9.7 mph 87 % 0.0 in
20:17 3.9 °F 1.9 °F 1017.2 in West 4.7 mph 9.7 mph 87 % 0.0 in
20:23 3.8 °F 1.8 °F 1017.2 in West 6.4 mph 9.7 mph 87 % 0.0 in
20:30 3.8 °F 1.7 °F 1017.5 in West 4.7 mph 9.7 mph 86 % 0.0 in
20:35 3.8 °F 1.5 °F 1017.5 in West 4.7 mph 8.0 mph 85 % 0.0 in
20:42 3.8 °F 1.5 °F 1017.5 in West 3.2 mph 8.0 mph 85 % 0.0 in
20:48 3.8 °F 1.7 °F 1017.5 in West 4.7 mph 6.4 mph 86 % 0.0 in
20:54 3.8 °F 1.7 °F 1017.8 in West 3.2 mph 6.4 mph 86 % 0.0 in
21:00 3.8 °F 1.7 °F 1017.8 in WSW 1.4 mph 6.4 mph 86 % 0.0 in
21:06 3.8 °F 1.7 °F 1017.8 in WSW 3.2 mph 6.4 mph 86 % 0.0 in
21:12 3.7 °F 1.7 °F 1017.8 in SW 3.2 mph 6.4 mph 87 % 0.0 in
21:18 3.6 °F 1.8 °F 1017.8 in SW 7.9 mph 8.0 mph 88 % 0.0 in
21:24 3.5 °F 1.7 °F 1017.8 in West 3.2 mph 6.4 mph 88 % 0.0 in
21:30 3.4 °F 1.8 °F 1017.8 in West 3.2 mph 9.7 mph 89 % 0.0 in
21:36 3.3 °F 1.7 °F 1017.8 in West 4.7 mph 8.0 mph 89 % 0.0 in
21:42 3.1 °F 1.5 °F 1017.8 in West 4.7 mph 6.4 mph 89 % 0.0 in
21:48 3.1 °F 1.5 °F 1017.8 in West 3.2 mph 6.4 mph 89 % 0.0 in
21:54 3.1 °F 1.5 °F 1017.8 in West 3.2 mph 9.7 mph 89 % 0.0 in
22:00 3.1 °F 1.5 °F 1017.8 in WSW 6.4 mph 8.0 mph 89 % 0.0 in
22:06 3.1 °F 1.5 °F 1017.8 in WNW 4.7 mph 9.7 mph 89 % 0.0 in
22:12 3.2 °F 1.6 °F 1018.2 in WSW 4.7 mph 9.7 mph 89 % 0.0 in
22:18 3.1 °F 1.5 °F 1018.2 in WSW 3.2 mph 14.5 mph 89 % 0.0 in
22:24 3.1 °F 1.3 °F 1017.8 in West 6.4 mph 9.7 mph 88 % 0.0 in
22:30 2.9 °F 1.3 °F 1017.8 in West 6.4 mph 6.4 mph 89 % 0.0 in
22:36 2.9 °F 1.3 °F 1017.8 in West 4.7 mph 8.0 mph 89 % 0.0 in
22:42 2.9 °F 1.4 °F 1018.2 in WSW 3.2 mph 8.0 mph 90 % 0.0 in
22:48 2.9 °F 1.3 °F 1018.2 in West 3.2 mph 4.8 mph 89 % 0.0 in
22:54 2.8 °F 1.3 °F 1018.2 in West 4.7 mph 6.4 mph 90 % 0.0 in
23:00 2.9 °F 1.4 °F 1018.2 in WSW 4.7 mph 6.4 mph 90 % 0.0 in
23:06 2.9 °F 1.3 °F 1018.2 in WSW 1.4 mph 6.4 mph 89 % 0.0 in
23:12 2.9 °F 1.3 °F 1018.2 in WSW 3.2 mph 4.8 mph 89 % 0.0 in
23:18 3.1 °F 1.5 °F 1018.2 in SW 6.4 mph 9.7 mph 89 % 0.0 in
23:24 3.2 °F 1.6 °F 1017.8 in West 7.9 mph 11.3 mph 89 % 0.0 in
23:30 3.1 °F 1.5 °F 1018.2 in WSW 9.7 mph 9.7 mph 89 % 0.0 in
23:36 3.1 °F 1.5 °F 1018.2 in WSW 7.9 mph 12.9 mph 89 % 0.0 in
23:42 3.1 °F 1.6 °F 1018.2 in SW 6.4 mph 11.3 mph 90 % 0.0 in
23:48 3.1 °F 1.6 °F 1018.2 in WSW 11.1 mph 12.9 mph 90 % 0.0 in
23:54 3.0 °F 1.4 °F 1018.2 in WSW 13.0 mph 13.0 mph 89 % 0.0 in
Meteo18
Compliments of Weather Underground - 4 mb

Script developed by  Jim McMurry - jmcmurry@mwt.net Adapted for the template by  Wim van der Kuil - Leuven-Template.eu

You find our weather info also at:

European Weather Network

Weather Underground

Equipment we use:

Weather-station
Davis Vue

Weather-program
Meteobridge

Weather-server
Raspberry PI 2 B+

Provider
1 and 1

Davis Vue

Meteobridge

Raspberry PI 2 B+

1 and 1